When you browse on this site, cookies collect data to enhance your experience and personalize the content and advertising you see.
Visit our Privacy Policy to learn more. By continuing to use the site, you agree to this use of cookies and data.
  • In Hungary
  • List of Countries
  • For 7 days
  • Water Temperature
  • Satellite Maps
  • Weather Map
  • News
  • Weather Widgets
  • user-avatar
    Login

    Hourly Weather Kartukovo

    Today, 24 January, Thursday

    Time Temperature Precipitation Wind Pressure Humidity
    00:00 -24°C° 0 mm 3 mps 752 mmHg 96%
    01:00 -24°C° 0 mm 3 mps 752 mmHg 95%
    02:00 -24°C° 0 mm 3 mps 753 mmHg 94%
    03:00 -24°C° 0 mm 2 mps 753 mmHg 95%
    04:00 -25°C° 0 mm 3 mps 752 mmHg 94%
    05:00 -25°C° 0 mm 3 mps 752 mmHg 93%
    06:00 -25°C° 0 mm 3 mps 752 mmHg 93%
    07:00 -24°C° 0 mm 3 mps 751 mmHg 91%
    08:00 -24°C° 0 mm 3 mps 751 mmHg 90%
    09:00 -24°C° 0 mm 3 mps 751 mmHg 88%
    10:00 -23°C° 0 mm 4 mps 751 mmHg 87%
    11:00 -22°C° 0 mm 4 mps 751 mmHg 85%
    12:00 -20°C° 0 mm 4 mps 750 mmHg 84%
    13:00 -19°C° 0.1 mm 4 mps 749 mmHg 86%
    14:00 -18°C° 0.1 mm 4 mps 749 mmHg 89%
    15:00 -18°C° 0.1 mm 4 mps 748 mmHg 91%
    16:00 -18°C° 0.2 mm 4 mps 747 mmHg 92%
    17:00 -18°C° 0.2 mm 4 mps 747 mmHg 92%
    18:00 -18°C° 0.2 mm 4 mps 746 mmHg 93%
    19:00 -17°C° 0.1 mm 3 mps 746 mmHg 93%
    20:00 -17°C° 0.1 mm 3 mps 745 mmHg 94%
    21:00 -16°C° 0.1 mm 2 mps 744 mmHg 95%
    22:00 -17°C° 0.1 mm 2 mps 744 mmHg 95%
    23:00 -15°C° 0.1 mm 1 mps 744 mmHg 96%

    Tomorrow, 25 January, Friday

    Time Temperature Precipitation Wind Pressure Humidity
    00:00 -16°C° 0.1 mm 1 mps 744 mmHg 96%
    01:00 -16°C° 0.1 mm 1 mps 744 mmHg 97%
    02:00 -16°C° 0.1 mm 1 mps 744 mmHg 97%
    03:00 -17°C° 0.1 mm 1 mps 744 mmHg 97%
    04:00 -19°C° 0 mm 2 mps 744 mmHg 97%
    05:00 -19°C° 0 mm 2 mps 744 mmHg 98%
    06:00 -20°C° 0 mm 2 mps 745 mmHg 98%
    07:00 -22°C° 0 mm 3 mps 746 mmHg 97%
    08:00 -22°C° 0 mm 3 mps 746 mmHg 97%
    09:00 -23°C° 0 mm 4 mps 747 mmHg 96%
    10:00 -23°C° 0 mm 4 mps 748 mmHg 95%
    11:00 -22°C° 0 mm 3 mps 748 mmHg 95%
    12:00 -21°C° 0 mm 3 mps 749 mmHg 94%
    13:00 -21°C° 0 mm 3 mps 749 mmHg 94%
    14:00 -21°C° 0 mm 3 mps 750 mmHg 94%
    15:00 -21°C° 0 mm 3 mps 750 mmHg 94%
    16:00 -21°C° 0 mm 3 mps 751 mmHg 95%
    17:00 -22°C° 0 mm 3 mps 752 mmHg 96%
    18:00 -22°C° 0 mm 3 mps 752 mmHg 97%
    19:00 -23°C° 0 mm 3 mps 753 mmHg 98%
    20:00 -24°C° 0 mm 3 mps 753 mmHg 98%
    21:00 -23°C° 0 mm 2 mps 754 mmHg 99%
    22:00 -24°C° 0 mm 2 mps 754 mmHg 99%
    23:00 -24°C° 0 mm 2 mps 754 mmHg 99%

    Day after tomorrow, 26 January, Saturday

    Time Temperature Precipitation Wind Pressure Humidity
    00:00 -25°C° 0 mm 2 mps 754 mmHg 99%
    01:00 -25°C° 0 mm 2 mps 755 mmHg 99%
    02:00 -25°C° 0 mm 2 mps 755 mmHg 99%
    03:00 -25°C° 0 mm 2 mps 755 mmHg 99%
    04:00 -25°C° 0 mm 2 mps 755 mmHg 99%
    05:00 -22°C° 0 mm 1 mps 756 mmHg 99%
    06:00 -22°C° 0 mm 1 mps 756 mmHg 99%
    07:00 -22°C° 0 mm 1 mps 756 mmHg 98%
    08:00 -22°C° 0 mm 1 mps 756 mmHg 98%
    09:00 -21°C° 0 mm 1 mps 756 mmHg 97%
    10:00 -20°C° 0 mm 1 mps 756 mmHg 96%
    11:00 -20°C° 0 mm 2 mps 756 mmHg 94%
    12:00 -19°C° 0 mm 2 mps 756 mmHg 92%
    13:00 -19°C° 0 mm 2 mps 756 mmHg 92%
    14:00 -18°C° 0 mm 2 mps 755 mmHg 91%
    15:00 -19°C° 0 mm 3 mps 755 mmHg 91%
    16:00 -19°C° 0 mm 3 mps 755 mmHg 90%
    17:00 -20°C° 0 mm 4 mps 754 mmHg 90%
    18:00 -20°C° 0 mm 4 mps 754 mmHg 89%
    19:00 -21°C° 0 mm 5 mps 754 mmHg 89%
    20:00 -20°C° 0 mm 5 mps 753 mmHg 88%
    21:00 -20°C° 0 mm 5 mps 753 mmHg 88%
    22:00 -20°C° 0 mm 6 mps 752 mmHg 87%
    23:00 -20°C° 0 mm 6 mps 752 mmHg 86%

    27 January, Sunday

    Time Temperature Precipitation Wind Pressure Humidity
    00:00 -20°C° 0 mm 6 mps 752 mmHg 85%
    01:00 -20°C° 0.1 mm 7 mps 751 mmHg 85%
    02:00 -20°C° 0.1 mm 7 mps 751 mmHg 85%
    03:00 -20°C° 0.1 mm 7 mps 751 mmHg 85%
    04:00 -20°C° 0.3 mm 7 mps 750 mmHg 86%
    05:00 -20°C° 0.3 mm 7 mps 750 mmHg 87%
    06:00 -20°C° 0.3 mm 7 mps 749 mmHg 88%
    07:00 -20°C° 0.2 mm 7 mps 749 mmHg 87%
    08:00 -20°C° 0.2 mm 7 mps 749 mmHg 87%
    09:00 -20°C° 0.2 mm 7 mps 749 mmHg 86%
    10:00 -19°C° 0.1 mm 7 mps 748 mmHg 87%
    11:00 -18°C° 0.1 mm 6 mps 748 mmHg 88%
    12:00 -18°C° 0.1 mm 6 mps 747 mmHg 89%
    13:00 -17°C° 0 mm 6 mps 747 mmHg 89%
    14:00 -16°C° 0 mm 6 mps 746 mmHg 90%
    15:00 -16°C° 0 mm 6 mps 746 mmHg 90%
    16:00 -15°C° 0 mm 6 mps 745 mmHg 89%
    17:00 -15°C° 0 mm 6 mps 745 mmHg 89%
    18:00 -15°C° 0 mm 6 mps 745 mmHg 89%
    19:00 -14°C° 0 mm 6 mps 744 mmHg 89%
    20:00 -14°C° 0 mm 7 mps 744 mmHg 89%
    21:00 -14°C° 0 mm 7 mps 744 mmHg 89%
    22:00 -14°C° 0 mm 6 mps 744 mmHg 89%
    23:00 -14°C° 0 mm 6 mps 743 mmHg 90%

    28 January, Monday

    Time Temperature Precipitation Wind Pressure Humidity
    00:00 -14°C° 0 mm 6 mps 743 mmHg 90%
    01:00 -14°C° 0 mm 6 mps 743 mmHg 90%
    02:00 -14°C° 0 mm 6 mps 743 mmHg 90%
    03:00 -14°C° 0 mm 6 mps 743 mmHg 90%
    04:00 -14°C° 0 mm 6 mps 743 mmHg 90%
    05:00 -14°C° 0 mm 5 mps 743 mmHg 90%
    06:00 -14°C° 0 mm 5 mps 743 mmHg 90%
    07:00 -14°C° 0 mm 5 mps 743 mmHg 90%
    08:00 -14°C° 0 mm 5 mps 743 mmHg 90%
    09:00 -14°C° 0 mm 5 mps 743 mmHg 90%
    10:00 -13°C° 0 mm 5 mps 743 mmHg 91%
    11:00 -12°C° 0 mm 4 mps 743 mmHg 91%
    12:00 -11°C° 0 mm 4 mps 743 mmHg 91%
    13:00 -11°C° 0 mm 4 mps 743 mmHg 92%
    14:00 -12°C° 0 mm 4 mps 743 mmHg 93%
    15:00 -12°C° 0 mm 4 mps 743 mmHg 94%
    16:00 -13°C° 0 mm 3 mps 744 mmHg 94%
    17:00 -13°C° 0 mm 3 mps 744 mmHg 94%
    18:00 -14°C° 0 mm 3 mps 744 mmHg 95%
    19:00 -13°C° 0 mm 2 mps 744 mmHg 95%
    20:00 -14°C° 0 mm 2 mps 745 mmHg 95%
    21:00 -14°C° 0 mm 2 mps 745 mmHg 96%
    22:00 -12°C° 0 mm 1 mps 745 mmHg 96%
    23:00 -12°C° 0 mm 1 mps 745 mmHg 96%

    29 January, Tuesday

    Time Temperature Precipitation Wind Pressure Humidity
    00:00 -11°C° 0 mm 1 mps 745 mmHg 96%
    01:00 -11°C° 0 mm 1 mps 746 mmHg 96%
    02:00 -11°C° 0 mm 1 mps 746 mmHg 96%
    03:00 -10°C° 0 mm 1 mps 746 mmHg 96%
    04:00 -10°C° 0 mm 1 mps 746 mmHg 96%
    05:00 -10°C° 0 mm 1 mps 747 mmHg 96%
    06:00 -10°C° 0 mm 1 mps 747 mmHg 96%
    07:00 -10°C° 0 mm 1 mps 747 mmHg 95%
    08:00 -11°C° 0 mm 1 mps 747 mmHg 95%
    09:00 -11°C° 0 mm 1 mps 747 mmHg 95%
    10:00 -10°C° 0 mm 1 mps 747 mmHg 94%
    11:00 -9°C° 0 mm 1 mps 748 mmHg 93%
    12:00 -8°C° 0 mm 1 mps 748 mmHg 93%
    13:00 -8°C° 0 mm 1 mps 748 mmHg 93%
    14:00 -8°C° 0 mm 1 mps 748 mmHg 94%
    15:00 -8°C° 0 mm 1 mps 748 mmHg 95%
    16:00 -9°C° 0 mm 1 mps 748 mmHg 95%
    17:00 -12°C° 0 mm 2 mps 748 mmHg 95%
    18:00 -12°C° 0 mm 2 mps 748 mmHg 95%
    19:00 -12°C° 0 mm 2 mps 748 mmHg 96%
    20:00 -13°C° 0 mm 3 mps 747 mmHg 96%
    21:00 -13°C° 0 mm 3 mps 747 mmHg 96%
    22:00 -12°C° 0 mm 3 mps 747 mmHg 95%
    23:00 -12°C° 0 mm 4 mps 747 mmHg 95%
    Show more